Weather in Kayraly

Russia / Murmansk Oblast     66˚55′25″N   29˚35′28″E
temp.,
°C
wind,
m/s
gust,
m/s
humid.,
%
clouds,
%
prec.,
mm/h
press.,
hPa
HPBL,
m
17 january, sun
sun1700:00−11˚w229784 0.0 101423
03:00−11˚w129682 0.0 101321
06:00−11˚w229594 0.0 101130
09:00−11˚w229687 0.0 101130
12:00−12˚w129887 0.0 101121
15:00−13˚w229887 0.1 101020
18:00−13˚w129992 0.0 101020
21:00−12˚w229896 0.1 101032
18 january, mon
mon1800:00−11˚w2397100 0.0 100976
03:00−11˚w2396100 0.0 100968
06:00−11˚w2395100 0.0 100896
09:00−12˚wsw2495100 0.0 1008101
12:00−12˚w2694100 0.0 1008151
15:00−13˚wsw2695100 0.0 1008143
18:00−13˚w2698100 0.0 1007166
21:00−14˚w2399100 0.1 100763
19 january, tue
tue1900:00−15˚w229999 0.0 100825
03:00−15˚w129697 0.0 100820
06:00−17˚w11970 0.0 100820
09:00−17˚w11970 0.0 100920
12:00−16˚wnw119822 0.0 100920
15:00−16˚nw119811 0.0 101020
18:00−15˚n11970 0.0 101020
21:00−15˚ene11984 0.0 101120
20 january, wed
wed2000:00−14˚e229767 0.0 101221
03:00−15˚ese3119576 0.1 1014335
06:00−15˚ese5129398 0.0 1015415
09:00−16˚ese5149399 0.1 1016457
12:00−17˚ese51394100 0.0 1017458
15:00−17˚ese51393100 0.1 1017453
18:00−17˚ese61392100 0.0 1017482
21:00−17˚ese61391100 0.1 1018521
21 january, thu
thu2100:00−16˚ese61392100 0.1 1017537
03:00−17˚ese51292100 0.2 1018522
06:00−17˚ese51292100 0.1 1018500
09:00−18˚ese51393100 0.2 1018510
12:00−19˚ese51295100 0.1 1020455
15:00−20˚ese51296100 0.1 1020402
18:00−20˚ese5139699 0.0 1020418
21:00−19˚ese61494100 0.1 1019522